EW3808 Weather Reports


Display with metric or nautical units.
time (UTC)temp
F
wind
direction
speed
MPH
gust
MPH
rain 1hr
in
rain 24hr
in
rain mn
in
humidity
%
barometer
mb
20260903181952 65 191 4.0 12.0 0.00 0.00 0.00 26 1021.0
20260903175735 65 146 1.0 12.0 0.00 0.00 0.00 22 1021.2
20260903174755 64 218 1.0 3.0 0.00 0.00 0.00 24 1021.2
20260903173804 64 241 4.0 15.0 0.00 0.00 0.00 21 1021.2
20260903171649 64 182 2.0 14.0 0.00 0.00 0.00 23 1021.3
20260903165508 63 155 3.0 13.0 0.00 0.00 0.00 22 1021.5
20260903164436 62 261 2.0 15.0 0.00 0.00 0.00 22 1021.5
20260903163419 61 211 1.0 15.0 0.00 0.00 0.00 25 1021.5
20260903162437 60 225 3.0 12.0 0.00 0.00 0.00 24 1021.5
20260903161455 59 196 0.0 9.0 0.00 0.00 0.00 28 1021.5
20260903160520 59 169 3.0 15.0 0.00 0.00 0.00 25 1021.5
20260903155539 59 167 5.0 15.0 0.00 0.00 0.00 27 1021.4
20260903153418 60 170 2.0 11.0 0.00 0.00 0.00 27 1021.5
20260903152411 60 151 3.0 11.0 0.00 0.00 0.00 26 1021.6
20260903150328 58 155 0.0 0.0 0.00 0.00 0.00 27 1021.6
20260903144207 55 167 3.0 13.0 0.00 0.00 0.00 30 1021.4
20260903143139 54 196 1.0 9.0 0.00 0.00 0.00 35 1021.3
20260903141046 49 140 0.0 0.0 0.00 0.00 0.00 38 1021.2
20260903133822 46 159 1.0 7.0 0.00 0.00 0.00 39 1021.2
20260903132802 46 140 0.0 7.0 0.00 0.00 0.00 37 1021.0
20260903131753 46 151 0.0 10.0 0.00 0.00 0.00 37 1020.9
20260903130743 46 168 0.0 7.0 0.00 0.00 0.00 37 1020.9
20260903125747 46 152 0.0 10.0 0.00 0.00 0.00 36 1020.7
20260903124713 46 153 0.0 0.0 0.00 0.00 0.00 36 1020.7
20260903123727 46 146 0.0 0.0 0.00 0.00 0.00 37 1020.5
20260903122718 47 171 0.0 6.0 0.00 0.00 0.00 37 1020.7
20260903121723 47 152 0.0 0.0 0.00 0.00 0.00 38 1020.5
20260903120740 48 150 0.0 5.0 0.00 0.00 0.00 37 1020.3
20260903115733 49 156 1.0 0.0 0.00 0.00 0.00 31 1020.1
20260903114756 50 146 0.0 0.0 0.00 0.00 0.00 30 1020.0
20260903111447 51 204 0.0 0.0 0.00 0.00 0.00 25 1019.9
20260903110429 51 148 2.0 19.0 0.00 0.00 0.00 26 1019.8
20260903103136 48 190 0.0 0.0 0.00 0.00 0.00 29 1019.9
20260903095945 46 168 0.0 0.0 0.00 0.00 0.00 43 1019.9
20260903094932 46 140 0.0 2.0 0.00 0.00 0.00 40 1020.1
20260903093949 47 153 0.0 0.0 0.00 0.00 0.00 41 1020.1
20260903093003 47 164 0.0 0.0 0.00 0.00 0.00 43 1020.0
20260903092000 47 154 0.0 0.0 0.00 0.00 0.00 41 1020.1
20260903085757 48 164 0.0 0.0 0.00 0.00 0.00 35 1020.1
20260903084731 48 159 0.0 0.0 0.00 0.00 0.00 39 1020.0
20260903083713 49 173 0.0 0.0 0.00 0.00 0.00 40 1020.1
20260903082654 49 143 0.0 0.0 0.00 0.00 0.00 30 1020.2
20260903081636 50 146 0.0 0.0 0.00 0.00 0.00 32 1020.0
20260903080618 51 165 0.0 0.0 0.00 0.00 0.00 30 1019.9
20260903075636 52 155 0.0 0.0 0.00 0.00 0.00 27 1019.8
20260903074602 52 209 0.0 0.0 0.00 0.00 0.00 26 1019.9
20260903073554 53 174 0.0 4.0 0.00 0.00 0.00 28 1019.8
20260903072611 53 163 1.0 0.0 0.00 0.00 0.00 26 1019.8
20260903071622 53 169 2.0 9.0 0.00 0.00 0.00 26 1019.7
20260903070640 53 179 2.0 11.0 0.00 0.00 0.00 27 1019.6
20260903065652 53 165 0.0 0.0 0.00 0.00 0.00 27 1019.7
20260903063545 52 150 0.0 7.0 0.00 0.00 0.00 30 1019.6
20260903062512 52 130 0.0 0.0 0.00 0.00 0.00 31 1019.5
20260903061440 52 164 4.0 10.0 0.00 0.00 0.00 35 1019.6
20260903060438 53 184 1.0 7.0 0.00 0.00 0.00 36 1019.6
20260903055436 53 163 0.0 3.0 0.00 0.00 0.00 36 1019.5
20260903054440 53 154 2.0 9.0 0.00 0.00 0.00 34 1019.5
20260903053429 53 163 1.0 0.0 0.00 0.00 0.00 34 1019.7
20260903052420 53 150 0.0 1.0 0.00 0.00 0.00 32 1019.7
20260903050254 55 176 0.0 1.0 0.00 0.00 0.00 28 1019.9
20260903045306 56 163 0.0 0.0 0.00 0.00 0.00 26 1019.8
20260903044252 56 180 1.0 3.0 0.00 0.00 0.00 26 1019.9
20260903042224 57 142 0.0 0.0 0.00 0.00 0.00 24 1019.8
20260903041210 57 171 0.0 4.0 0.00 0.00 0.00 22 1019.8
20260903040153 56 196 2.0 0.0 0.00 0.00 0.00 22 1019.8
20260903035207 56 176 1.0 9.0 0.00 0.00 0.00 29 1019.7
20260903034134 56 178 0.0 6.0 0.00 0.00 0.00 29 1019.6
20260903033156 55 131 1.0 7.0 0.00 0.00 0.00 28 1019.4
20260903032212 55 161 1.0 6.0 0.00 0.00 0.00 29 1019.4
20260903031214 55 126 1.0 6.0 0.00 0.00 0.00 27 1019.3
20260903025035 53 155 0.0 0.0 0.00 0.00 0.00 42 1019.0
20260903024056 54 150 1.0 6.0 0.00 0.00 0.00 42 1019.0
20260903023045 53 192 0.0 4.0 0.00 0.00 0.00 40 1018.9
20260903022019 54 173 0.0 0.0 0.00 0.00 0.00 47 1018.9
20260903020956 55 173 0.0 0.0 0.00 0.00 0.00 48 1018.9
20260903015948 56 173 0.0 0.0 0.00 0.00 0.00 44 1019.0
20260903012658 59 217 0.0 0.0 0.00 0.00 0.00 37 1019.1
20260903010527 61 201 0.0 6.0 0.00 0.00 0.00 31 1019.2
20260903005514 62 221 0.0 0.0 0.00 0.00 0.00 30 1019.3
20260903004506 63 245 0.0 11.0 0.00 0.00 0.00 31 1019.2
20260903003530 63 227 2.0 11.0 0.00 0.00 0.00 28 1019.2
20260903002504 64 190 1.0 0.0 0.00 0.00 0.00 31 1019.2
20260903001514 64 223 1.0 10.0 0.00 0.00 0.00 31 1019.2
20260903000514 65 203 2.0 10.0 0.00 0.00 0.00 30 1019.1
20260902234335 65 189 2.0 9.0 0.00 0.00 0.00 33 1019.1
20260902233336 66 250 1.0 13.0 0.00 0.00 0.00 37 1019.0
20260902232321 66 195 1.0 8.0 0.00 0.00 0.00 34 1018.9
20260902231328 65 208 2.0 13.0 0.00 0.00 0.00 37 1018.9
20260902225203 65 209 3.0 14.0 0.00 0.00 0.00 38 1019.0
20260902224204 65 172 1.0 11.0 0.00 0.00 0.00 40 1018.9
20260902223205 65 221 1.0 18.0 0.00 0.00 0.00 40 1019.1
20260902222228 65 109 3.0 18.0 0.00 0.00 0.00 40 1019.2
20260902221220 65 197 1.0 9.0 0.00 0.00 0.00 37 1019.2
20260902220155 65 245 1.0 0.0 0.00 0.00 0.00 38 1019.1
20260902215215 66 205 2.0 15.0 0.00 0.02 0.00 38 1019.3
20260902214232 66 260 4.0 16.0 0.00 0.02 0.00 35 1019.1
20260902213225 66 9 4.0 16.0 0.00 0.02 0.00 39 1019.4
20260902212242 67 123 2.0 15.0 0.00 0.02 0.00 38 1019.0
20260902210121 65 297 1.0 8.0 0.00 0.02 0.00 43 1019.3
20260902205120 66 118 0.0 8.0 0.00 0.02 0.00 45 1019.4
20260902203028 65 173 4.0 13.0 0.00 0.02 0.00 42 1019.5
20260902202003 65 286 0.0 10.0 0.00 0.02 0.00 40 1019.8
20260902200936 65 154 1.0 9.0 0.00 0.02 0.00 46 1019.9
20260902195957 63 225 3.0 9.0 0.00 0.02 0.00 48 1019.8
20260902195018 63 242 2.0 9.0 0.00 0.02 0.00 45 1019.8
20260902190604 61 142 2.0 11.0 0.00 0.02 0.00 55 1020.7
20260902185545 61 122 4.0 10.0 0.00 0.02 0.00 51 1020.8
20260902184540 62 193 2.0 14.0 0.00 0.02 0.00 52 1020.9
20260902183517 63 222 3.0 14.0 0.00 0.02 0.00 46 1020.9